MSR777 HECA-EGLL

Flight info

Callsign MSR777
Flight time 4h 32m
Altitude 36000
Route CVO L617 NOZ L551 ANTAR DCT NEVRA/N0479F380 DCT TALAS DCT ENFAR DCT AKIKA DCT SOLGU DCT NAVSU DCT SABAD DCT KUBUD DCT GIKUS DCT SOTOV DCT XEBIX DCT USUDO DCT LUPEN DCT ETINO DCT ABNUR DCT DIMAL DCT ALESO
Aircraft A359/H-SDE2E3GHIJ3J4J5LM1ORWXY/LB1D1

Departure

Time 2026-05-06 16:19
Airport Cairo International Airport (HECA)

Arrival

Time 2026-05-06 20:51
Airport London Heathrow Airport (EGLL)
Time Latitude Longitude Altitude Speed Heading
2026-05-06 15:51 30.10856 31.39849 380 ft 0 kts 75°
2026-05-06 16:08 30.10859 31.39865 380 ft 4 kts 75°
2026-05-06 16:08 30.10859 31.39866 380 ft 4 kts 75°
2026-05-06 16:08 30.10853 31.39836 380 ft 4 kts 78°
2026-05-06 16:08 30.10848 31.39805 380 ft 4 kts 78°
2026-05-06 16:09 30.10843 31.39779 380 ft 4 kts 100°
2026-05-06 16:09 30.10856 31.39760 380 ft 4 kts 166°
2026-05-06 16:09 30.10876 31.39755 380 ft 0 kts 165°
2026-05-06 16:09 30.10863 31.39759 380 ft 0 kts 165°
2026-05-06 16:14 30.10848 31.39763 380 ft 6 kts 165°
2026-05-06 16:14 30.10775 31.39786 380 ft 13 kts 165°
2026-05-06 16:14 30.10681 31.39815 380 ft 15 kts 165°
2026-05-06 16:14 30.10578 31.39846 380 ft 16 kts 165°
2026-05-06 16:15 30.10468 31.39876 380 ft 17 kts 178°
2026-05-06 16:15 30.10372 31.39811 380 ft 17 kts 230°
2026-05-06 16:15 30.10294 31.39707 380 ft 18 kts 229°
2026-05-06 16:15 30.10212 31.39599 380 ft 18 kts 229°
2026-05-06 16:16 30.10113 31.39608 380 ft 16 kts 144°
2026-05-06 16:16 30.10030 31.39694 380 ft 16 kts 130°
2026-05-06 16:16 30.10000 31.39816 380 ft 17 kts 92°
2026-05-06 16:16 30.10020 31.39895 377 ft 0 kts 50°
2026-05-06 16:17 30.10023 31.39899 377 ft 5 kts 50°
2026-05-06 16:18 30.10094 31.39994 377 ft 31 kts 49°
2026-05-06 16:18 30.10370 31.40360 382 ft 89 kts 49°
2026-05-06 16:18 30.10896 31.41056 379 ft 139 kts 49°
2026-05-06 16:18 30.11618 31.42032 460 ft 174 kts 50°
2026-05-06 16:19 30.12287 31.43051 1329 ft 149 kts 49°
2026-05-06 16:19 30.12936 31.44046 1663 ft 166 kts 50°
2026-05-06 16:19 30.13677 31.45150 1954 ft 181 kts 49°
2026-05-06 16:19 30.14514 31.46326 2219 ft 197 kts 44°
2026-05-06 16:20 30.15702 31.47162 2552 ft 209 kts 14°
2026-05-06 16:20 30.17190 31.47110 2855 ft 224 kts 341°
2026-05-06 16:20 30.18553 31.46122 3171 ft 242 kts 322°
2026-05-06 16:20 30.19809 31.44731 3533 ft 258 kts 314°
2026-05-06 16:21 30.21043 31.43203 4197 ft 258 kts 316°
2026-05-06 16:21 30.22284 31.41702 4911 ft 259 kts 315°
2026-05-06 16:21 30.23520 31.40177 5602 ft 261 kts 314°
2026-05-06 16:21 30.24757 31.38621 6271 ft 264 kts 314°
2026-05-06 16:22 30.25998 31.37042 6935 ft 266 kts 314°
2026-05-06 16:22 30.27243 31.35456 7669 ft 266 kts 313°
2026-05-06 16:22 30.28489 31.33867 8373 ft 268 kts 312°
2026-05-06 16:22 30.29758 31.32253 9068 ft 272 kts 312°
2026-05-06 16:23 30.31037 31.30626 9722 ft 276 kts 311°
2026-05-06 16:23 30.32340 31.28971 10287 ft 283 kts 311°
2026-05-06 16:23 30.33701 31.27240 10581 ft 298 kts 311°
2026-05-06 16:23 30.35134 31.25416 10903 ft 313 kts 311°
2026-05-06 16:24 30.36631 31.23512 11200 ft 328 kts 311°
2026-05-06 16:24 30.38198 31.21518 11490 ft 341 kts 311°
2026-05-06 16:24 30.39809 31.19469 11785 ft 354 kts 311°
2026-05-06 16:24 30.41494 31.17326 12082 ft 365 kts 311°
2026-05-06 16:25 30.43220 31.15131 12548 ft 370 kts 311°
2026-05-06 16:25 30.44966 31.12909 13068 ft 374 kts 311°
2026-05-06 16:25 30.46718 31.10677 13597 ft 376 kts 311°
2026-05-06 16:25 30.48489 31.08420 14096 ft 379 kts 311°
2026-05-06 16:26 30.50268 31.06151 14544 ft 382 kts 310°
2026-05-06 16:26 30.52060 31.03862 14980 ft 385 kts 310°
2026-05-06 16:26 30.53864 31.01558 15432 ft 387 kts 310°
2026-05-06 16:26 30.55680 30.99236 15894 ft 390 kts 310°
2026-05-06 16:27 30.57510 30.96894 16342 ft 392 kts 310°
2026-05-06 16:27 30.59349 30.94539 16820 ft 395 kts 310°
2026-05-06 16:27 30.61199 30.92171 17324 ft 397 kts 310°
2026-05-06 16:27 30.63058 30.89788 17796 ft 399 kts 310°
2026-05-06 16:28 30.64927 30.87391 18313 ft 402 kts 310°
2026-05-06 16:28 30.66812 30.84972 18743 ft 404 kts 310°
2026-05-06 16:28 30.68680 30.82574 19202 ft 406 kts 310°
2026-05-06 16:28 30.70584 30.80128 19665 ft 408 kts 310°
2026-05-06 16:29 30.72496 30.77669 20123 ft 411 kts 310°
2026-05-06 16:29 30.74417 30.75198 20612 ft 413 kts 310°
2026-05-06 16:29 30.76348 30.72713 21066 ft 415 kts 310°
2026-05-06 16:29 30.78291 30.70209 21519 ft 417 kts 310°
2026-05-06 16:30 30.80236 30.67702 21996 ft 420 kts 310°
2026-05-06 16:30 30.81533 30.66030 22332 ft 421 kts 310°
2026-05-06 16:30 30.84164 30.62633 23021 ft 423 kts 310°
2026-05-06 16:30 30.86139 30.60083 23523 ft 426 kts 310°
2026-05-06 16:31 30.88130 30.57510 23934 ft 429 kts 310°
2026-05-06 16:31 30.90136 30.54915 24338 ft 431 kts 310°
2026-05-06 16:31 30.92148 30.52312 24766 ft 433 kts 310°
2026-05-06 16:31 30.94168 30.49696 25190 ft 435 kts 310°
2026-05-06 16:32 30.96198 30.47065 25610 ft 437 kts 310°
2026-05-06 16:32 30.98218 30.44446 26004 ft 439 kts 310°
2026-05-06 16:32 31.00261 30.41795 26419 ft 441 kts 310°
2026-05-06 16:32 31.02314 30.39129 26822 ft 444 kts 310°
2026-05-06 16:33 31.04384 30.36439 27221 ft 446 kts 310°
2026-05-06 16:33 31.06448 30.33712 27602 ft 447 kts 307°
2026-05-06 16:33 31.08273 30.30786 27991 ft 447 kts 300°
2026-05-06 16:34 31.10922 30.24204 28745 ft 449 kts 289°
2026-05-06 16:34 31.11940 30.20751 29090 ft 451 kts 287°
2026-05-06 16:34 31.12871 30.17285 29433 ft 453 kts 286°
2026-05-06 16:34 31.13788 30.13750 29768 ft 455 kts 286°
2026-05-06 16:35 31.14708 30.10202 30082 ft 457 kts 286°
2026-05-06 16:35 31.15646 30.06632 30313 ft 460 kts 287°
2026-05-06 16:35 31.16694 30.03118 30708 ft 459 kts 291°
2026-05-06 16:35 31.18097 29.99778 31142 ft 457 kts 298°
2026-05-06 16:36 31.19882 29.96700 31527 ft 458 kts 306°
2026-05-06 16:36 31.22045 29.93957 31909 ft 459 kts 314°
2026-05-06 16:36 31.24545 29.91626 32259 ft 461 kts 323°
2026-05-06 16:36 31.27263 29.89705 32577 ft 463 kts 327°
2026-05-06 16:37 31.30086 29.87887 32884 ft 463 kts 328°
2026-05-06 16:37 31.32930 29.86124 33236 ft 462 kts 328°
2026-05-06 16:37 31.35777 29.84381 33571 ft 461 kts 329°
2026-05-06 16:37 31.38622 29.82636 33895 ft 459 kts 328°
2026-05-06 16:38 31.41442 29.80893 34194 ft 459 kts 328°
2026-05-06 16:38 31.44258 29.79141 34419 ft 458 kts 328°
2026-05-06 16:38 31.47076 29.77379 34636 ft 458 kts 328°
2026-05-06 16:38 31.49884 29.75617 34858 ft 458 kts 328°
2026-05-06 16:39 31.52696 29.73848 35056 ft 458 kts 328°
2026-05-06 16:39 31.55503 29.72081 35222 ft 459 kts 328°
2026-05-06 16:39 31.58329 29.70300 35368 ft 460 kts 328°
2026-05-06 16:39 31.61144 29.68527 35577 ft 459 kts 328°
2026-05-06 16:40 31.63929 29.66772 35791 ft 459 kts 328°
2026-05-06 16:40 31.66737 29.65003 35986 ft 458 kts 328°
2026-05-06 16:40 31.69555 29.63225 36099 ft 460 kts 328°
2026-05-06 16:41 31.75232 29.59636 36108 ft 466 kts 328°
2026-05-06 16:41 31.80936 29.56029 36105 ft 465 kts 328°
2026-05-06 16:42 31.86633 29.52422 36108 ft 464 kts 328°
2026-05-06 16:42 31.91362 29.49423 36108 ft 465 kts 328°
2026-05-06 16:43 31.97060 29.45805 36102 ft 465 kts 328°
2026-05-06 16:43 32.02761 29.42185 36103 ft 465 kts 328°
2026-05-06 16:44 32.08445 29.38567 36109 ft 465 kts 328°
2026-05-06 16:44 32.14133 29.34934 36109 ft 464 kts 328°
2026-05-06 16:45 32.20748 29.30707 36105 ft 464 kts 328°
2026-05-06 16:45 32.25515 29.27664 36105 ft 464 kts 328°
2026-05-06 16:46 32.31155 29.24045 36110 ft 464 kts 328°
2026-05-06 16:46 32.36828 29.20398 36108 ft 465 kts 328°
2026-05-06 16:47 32.42513 29.16740 36105 ft 465 kts 328°
2026-05-06 16:47 32.48197 29.13080 36105 ft 465 kts 328°
2026-05-06 16:48 32.53877 29.09418 36107 ft 465 kts 328°
2026-05-06 16:48 32.59557 29.05750 36107 ft 465 kts 328°
2026-05-06 16:49 32.65231 29.02080 36105 ft 465 kts 328°
2026-05-06 16:49 32.70911 28.98401 36107 ft 465 kts 328°
2026-05-06 16:50 32.76589 28.94718 36108 ft 465 kts 328°
2026-05-06 16:50 32.82264 28.91032 36102 ft 465 kts 328°
2026-05-06 16:51 32.87936 28.87343 36109 ft 464 kts 328°
2026-05-06 16:51 32.93603 28.83651 36105 ft 464 kts 328°
2026-05-06 16:52 32.99276 28.79949 36102 ft 463 kts 328°
2026-05-06 16:52 33.04922 28.76260 36099 ft 463 kts 328°
2026-05-06 16:53 33.10538 28.72585 36102 ft 463 kts 328°
2026-05-06 16:53 33.16188 28.68883 36102 ft 463 kts 328°
2026-05-06 16:54 33.21825 28.65182 36099 ft 463 kts 328°
2026-05-06 16:54 33.27471 28.61471 36100 ft 462 kts 328°
2026-05-06 16:55 33.33098 28.57767 36106 ft 461 kts 328°
2026-05-06 16:55 33.38718 28.54063 36099 ft 461 kts 328°
2026-05-06 16:56 33.44331 28.50357 36095 ft 461 kts 328°
2026-05-06 16:56 33.49951 28.46641 36096 ft 461 kts 328°
2026-05-06 16:57 33.55524 28.42950 36103 ft 460 kts 328°
2026-05-06 16:57 33.61124 28.39236 36104 ft 459 kts 328°
2026-05-06 16:58 33.66711 28.35525 36098 ft 459 kts 328°
2026-05-06 16:58 33.72305 28.31804 36099 ft 459 kts 328°
2026-05-06 16:59 33.77892 28.28083 36101 ft 459 kts 328°
2026-05-06 16:59 33.83424 28.24250 36103 ft 457 kts 325°
2026-05-06 17:00 33.88705 28.19976 36102 ft 456 kts 323°
2026-05-06 17:00 33.93940 28.15652 36101 ft 456 kts 323°
2026-05-06 17:01 33.99220 28.11381 36102 ft 457 kts 324°
2026-05-06 17:01 34.04521 28.07143 36105 ft 457 kts 324°
2026-05-06 17:02 34.09796 28.02932 36114 ft 457 kts 324°
2026-05-06 17:02 34.15117 27.98675 36097 ft 456 kts 324°
2026-05-06 17:03 34.20367 27.94465 36100 ft 456 kts 324°
2026-05-06 17:03 34.25641 27.90228 36099 ft 455 kts 324°
2026-05-06 17:04 34.30926 27.85976 36096 ft 455 kts 324°
2026-05-06 17:04 34.36203 27.81724 36096 ft 456 kts 324°
2026-05-06 17:05 34.41473 27.77472 36103 ft 454 kts 324°
2026-05-06 17:05 34.46727 27.73225 36101 ft 454 kts 324°
2026-05-06 17:06 34.51984 27.68970 36086 ft 454 kts 324°
2026-05-06 17:06 34.57235 27.64712 36084 ft 454 kts 324°
2026-05-06 17:07 34.62487 27.60448 36081 ft 454 kts 324°
2026-05-06 17:07 34.67736 27.56179 36093 ft 453 kts 324°
2026-05-06 17:08 34.72932 27.51947 36087 ft 452 kts 324°
2026-05-06 17:08 34.78157 27.47685 36087 ft 452 kts 324°
2026-05-06 17:09 34.83383 27.43414 36090 ft 452 kts 324°
2026-05-06 17:09 34.88612 27.39135 36092 ft 453 kts 324°
2026-05-06 17:10 34.93839 27.34851 36093 ft 453 kts 324°
2026-05-06 17:10 34.99056 27.30570 36091 ft 450 kts 324°
2026-05-06 17:11 35.04253 27.26298 36086 ft 450 kts 324°
2026-05-06 17:11 35.09445 27.22022 36087 ft 450 kts 324°
2026-05-06 17:12 35.14638 27.17739 36089 ft 450 kts 324°
2026-05-06 17:12 35.19795 27.13479 36080 ft 450 kts 324°
2026-05-06 17:13 35.24985 27.09185 36078 ft 450 kts 324°
2026-05-06 17:13 35.30177 27.04883 36078 ft 450 kts 324°
2026-05-06 17:14 35.35373 27.00571 36077 ft 450 kts 324°
2026-05-06 17:14 35.40562 26.96258 36076 ft 450 kts 324°
2026-05-06 17:15 35.45720 26.91964 36081 ft 450 kts 324°
2026-05-06 17:15 35.50904 26.87642 36094 ft 451 kts 324°
2026-05-06 17:16 35.56087 26.83312 36090 ft 450 kts 324°
2026-05-06 17:16 35.61273 26.78975 36094 ft 450 kts 324°
2026-05-06 17:17 35.66427 26.74657 36093 ft 450 kts 324°
2026-05-06 17:17 35.71604 26.70312 36094 ft 450 kts 324°
2026-05-06 17:18 35.76769 26.65970 36094 ft 450 kts 324°
2026-05-06 17:18 35.81941 26.61617 36092 ft 450 kts 324°
2026-05-06 17:19 35.87113 26.57255 36092 ft 450 kts 324°
2026-05-06 17:19 35.92279 26.52892 36092 ft 451 kts 324°
2026-05-06 17:20 35.97460 26.48510 36092 ft 451 kts 324°
2026-05-06 17:20 36.02648 26.44114 36092 ft 451 kts 324°
2026-05-06 17:21 36.07820 26.39725 36107 ft 451 kts 324°
2026-05-06 17:21 36.12991 26.35329 36093 ft 450 kts 324°
2026-05-06 17:22 36.18112 26.30969 36095 ft 449 kts 324°
2026-05-06 17:22 36.23267 26.26572 36088 ft 449 kts 324°
2026-05-06 17:23 36.28431 26.22160 36091 ft 451 kts 324°
2026-05-06 17:23 36.33590 26.17747 36089 ft 451 kts 324°
2026-05-06 17:24 36.38753 26.13322 36088 ft 450 kts 324°
2026-05-06 17:24 36.43042 26.09641 36088 ft 449 kts 324°
2026-05-06 17:25 36.48184 26.05221 36087 ft 449 kts 324°
2026-05-06 17:25 36.53322 26.00796 36088 ft 449 kts 324°
2026-05-06 17:26 36.58468 25.96358 36087 ft 449 kts 323°
2026-05-06 17:26 36.63577 25.91945 36104 ft 451 kts 324°
2026-05-06 17:27 36.68726 25.87489 36083 ft 450 kts 324°
2026-05-06 17:27 36.73861 25.83039 36085 ft 449 kts 323°
2026-05-06 17:28 36.79007 25.78571 36088 ft 449 kts 323°
2026-05-06 17:28 36.84132 25.74113 36087 ft 449 kts 323°
2026-05-06 17:29 36.89267 25.69641 36077 ft 449 kts 323°
2026-05-06 17:29 36.94366 25.65192 36082 ft 449 kts 323°
2026-05-06 17:30 36.99480 25.60723 36078 ft 450 kts 323°
2026-05-06 17:30 37.04646 25.56200 36076 ft 450 kts 323°
2026-05-06 17:31 37.09779 25.51698 36081 ft 450 kts 323°
2026-05-06 17:31 37.14874 25.47219 36074 ft 450 kts 323°
2026-05-06 17:32 37.20011 25.42700 36080 ft 450 kts 323°
2026-05-06 17:32 37.25133 25.38189 36076 ft 449 kts 323°
2026-05-06 17:33 37.30246 25.33676 36074 ft 449 kts 323°
2026-05-06 17:33 37.35368 25.29146 36076 ft 451 kts 323°
2026-05-06 17:34 37.40473 25.24623 36075 ft 452 kts 323°
2026-05-06 17:34 37.45638 25.20040 36079 ft 452 kts 323°
2026-05-06 17:35 37.50743 25.15502 36073 ft 451 kts 323°
2026-05-06 17:35 37.55866 25.10940 36073 ft 451 kts 323°
2026-05-06 17:36 37.63547 25.04086 36076 ft 450 kts 323°
2026-05-06 17:36 37.68664 24.99510 36068 ft 451 kts 323°
2026-05-06 17:37 37.73791 24.94917 36080 ft 452 kts 323°
2026-05-06 17:37 37.78913 24.90320 36072 ft 451 kts 323°
2026-05-06 17:38 37.84033 24.85719 36068 ft 450 kts 323°
2026-05-06 17:38 37.89138 24.81122 36062 ft 451 kts 323°
2026-05-06 17:39 37.94219 24.76536 36066 ft 450 kts 323°
2026-05-06 17:39 37.99317 24.71927 36054 ft 451 kts 323°
2026-05-06 17:40 38.04431 24.67300 36064 ft 451 kts 323°
2026-05-06 17:40 38.09534 24.62675 36063 ft 451 kts 323°
2026-05-06 17:41 38.14636 24.58040 36082 ft 452 kts 323°
2026-05-06 17:41 38.17189 24.55718 36277 ft 452 kts 323°
2026-05-06 17:41 38.19770 24.53413 36455 ft 452 kts 324°
2026-05-06 17:42 38.22366 24.51163 36617 ft 452 kts 324°
2026-05-06 17:42 38.24975 24.48930 36783 ft 452 kts 324°
2026-05-06 17:42 38.27585 24.46700 36946 ft 452 kts 324°
2026-05-06 17:42 38.30187 24.44468 37141 ft 451 kts 324°
2026-05-06 17:43 38.32795 24.42221 37295 ft 451 kts 324°
2026-05-06 17:43 38.35391 24.39973 37437 ft 451 kts 324°
2026-05-06 17:43 38.37987 24.37720 37551 ft 452 kts 324°
2026-05-06 17:43 38.40590 24.35456 37582 ft 454 kts 324°
2026-05-06 17:44 38.43205 24.33177 37716 ft 454 kts 324°
2026-05-06 17:44 38.45779 24.30934 37865 ft 454 kts 324°
2026-05-06 17:44 38.48387 24.28658 37976 ft 454 kts 324°
2026-05-06 17:44 38.50996 24.26381 38051 ft 455 kts 324°
2026-05-06 17:45 38.56219 24.21815 38057 ft 453 kts 324°
2026-05-06 17:45 38.61421 24.17261 38053 ft 453 kts 324°
2026-05-06 17:46 38.66626 24.12695 38055 ft 453 kts 324°
2026-05-06 17:46 38.71797 24.08151 38047 ft 453 kts 324°
2026-05-06 17:47 38.77000 24.03571 38048 ft 454 kts 324°
2026-05-06 17:47 38.82210 23.98975 38045 ft 455 kts 324°
2026-05-06 17:48 38.87424 23.94369 38048 ft 454 kts 324°
2026-05-06 17:48 38.92631 23.89760 38045 ft 454 kts 324°
2026-05-06 17:49 38.97837 23.85144 38041 ft 454 kts 324°
2026-05-06 17:49 39.03040 23.80522 38035 ft 454 kts 324°
2026-05-06 17:50 39.08212 23.75919 38032 ft 454 kts 324°
2026-05-06 17:50 39.13407 23.71288 38025 ft 454 kts 324°
2026-05-06 17:51 39.18616 23.66634 38023 ft 455 kts 324°
2026-05-06 17:51 39.23810 23.61986 38022 ft 455 kts 324°
2026-05-06 17:52 39.29010 23.57324 38023 ft 455 kts 324°
2026-05-06 17:52 39.34212 23.52652 38026 ft 455 kts 323°
2026-05-06 17:53 39.39413 23.47972 38037 ft 455 kts 323°
2026-05-06 17:53 39.44585 23.43309 38034 ft 455 kts 323°
2026-05-06 17:54 39.49791 23.38608 38034 ft 456 kts 323°
2026-05-06 17:54 39.55004 23.33890 38034 ft 456 kts 323°
2026-05-06 17:55 39.60206 23.29174 38035 ft 456 kts 323°
2026-05-06 17:55 39.65403 23.24455 38034 ft 456 kts 323°
2026-05-06 17:56 39.70597 23.19729 38035 ft 456 kts 323°
2026-05-06 17:56 39.75765 23.15017 38036 ft 456 kts 323°
2026-05-06 17:57 39.80949 23.10283 38031 ft 456 kts 323°
2026-05-06 17:57 39.86137 23.05535 38029 ft 456 kts 323°
2026-05-06 17:58 39.91332 23.00772 38032 ft 456 kts 323°
2026-05-06 17:58 39.96491 22.96033 38031 ft 456 kts 323°
2026-05-06 17:59 40.01678 22.91260 38032 ft 456 kts 323°
2026-05-06 17:59 40.06857 22.86485 38032 ft 456 kts 323°
2026-05-06 18:00 40.12032 22.81704 38034 ft 455 kts 323°
2026-05-06 18:00 40.17198 22.76923 38027 ft 455 kts 323°
2026-05-06 18:01 40.22368 22.72129 38027 ft 455 kts 323°
2026-05-06 18:01 40.27503 22.67358 38026 ft 456 kts 323°
2026-05-06 18:02 40.32670 22.62548 38025 ft 456 kts 323°
2026-05-06 18:02 40.37844 22.57724 38010 ft 455 kts 322°
2026-05-06 18:03 40.43008 22.52899 38028 ft 455 kts 322°
2026-05-06 18:03 40.48168 22.48068 38026 ft 455 kts 322°
2026-05-06 18:04 40.53285 22.43268 38024 ft 455 kts 322°
2026-05-06 18:04 40.58451 22.38412 38027 ft 456 kts 322°
2026-05-06 18:05 40.63619 22.33546 38022 ft 456 kts 322°
2026-05-06 18:05 40.68784 22.28674 38027 ft 456 kts 322°
2026-05-06 18:06 40.73949 22.23790 38027 ft 456 kts 322°
2026-05-06 18:06 40.79069 22.18942 38035 ft 456 kts 322°
2026-05-06 18:07 40.84225 22.14048 38049 ft 456 kts 322°
2026-05-06 18:07 40.89374 22.09153 38030 ft 455 kts 322°
2026-05-06 18:08 40.94510 22.04260 38031 ft 454 kts 322°
2026-05-06 18:08 40.98772 22.00192 38050 ft 454 kts 322°
2026-05-06 18:09 41.03898 21.95291 38031 ft 454 kts 322°
2026-05-06 18:09 41.08513 21.89652 38046 ft 450 kts 307°
2026-05-06 18:10 41.12191 21.82952 38029 ft 449 kts 303°
2026-05-06 18:10 41.15672 21.76117 38032 ft 449 kts 302°
2026-05-06 18:11 41.19133 21.69243 38022 ft 447 kts 302°
2026-05-06 18:11 41.22597 21.62388 38026 ft 447 kts 302°
2026-05-06 18:12 41.26076 21.55517 38022 ft 447 kts 302°
2026-05-06 18:12 41.29552 21.48641 38026 ft 447 kts 302°
2026-05-06 18:13 41.32996 21.41813 38018 ft 447 kts 302°
2026-05-06 18:13 41.36466 21.34917 38029 ft 447 kts 302°
2026-05-06 18:14 41.39920 21.28038 38029 ft 447 kts 302°
2026-05-06 18:14 41.43379 21.21131 38043 ft 447 kts 302°
2026-05-06 18:15 41.46812 21.14261 38035 ft 448 kts 302°
2026-05-06 18:15 41.50256 21.07359 38038 ft 446 kts 302°
2026-05-06 18:16 41.53679 21.00477 38047 ft 445 kts 302°
2026-05-06 18:16 41.57100 20.93584 38046 ft 445 kts 302°
2026-05-06 18:17 41.60516 20.86687 38057 ft 445 kts 302°
2026-05-06 18:17 41.63925 20.79788 38064 ft 445 kts 301°
2026-05-06 18:18 41.67329 20.72885 38061 ft 443 kts 302°
2026-05-06 18:18 41.70722 20.65988 38062 ft 443 kts 301°
2026-05-06 18:19 41.74104 20.59098 38071 ft 443 kts 301°
2026-05-06 18:19 41.77841 20.52523 38072 ft 446 kts 312°
2026-05-06 18:20 41.82370 20.46805 38076 ft 448 kts 315°
2026-05-06 18:20 41.86995 20.41261 38071 ft 447 kts 315°
2026-05-06 18:21 41.91644 20.35718 38076 ft 447 kts 315°
2026-05-06 18:21 41.96275 20.30161 38073 ft 446 kts 315°
2026-05-06 18:22 42.00904 20.24577 38083 ft 446 kts 315°
2026-05-06 18:22 42.05505 20.19013 38073 ft 447 kts 315°
2026-05-06 18:23 42.10134 20.13405 38072 ft 447 kts 315°
2026-05-06 18:23 42.14749 20.07803 38071 ft 446 kts 315°
2026-05-06 18:24 42.19345 20.02214 38076 ft 444 kts 315°
2026-05-06 18:24 42.23933 19.96621 38073 ft 444 kts 315°
2026-05-06 18:25 42.28516 19.91023 38074 ft 444 kts 314°
2026-05-06 18:25 42.33089 19.85429 38087 ft 444 kts 314°
2026-05-06 18:26 42.37664 19.79815 38087 ft 443 kts 314°
2026-05-06 18:26 42.42223 19.74211 38080 ft 442 kts 314°
2026-05-06 18:27 42.46735 19.68654 38078 ft 441 kts 314°
2026-05-06 18:27 42.51272 19.63056 38088 ft 441 kts 314°
2026-05-06 18:28 42.55838 19.57448 38078 ft 444 kts 315°
2026-05-06 18:28 42.60504 19.51924 38080 ft 444 kts 315°
2026-05-06 18:29 42.65171 19.46425 38071 ft 444 kts 315°
2026-05-06 18:29 42.69816 19.40912 38075 ft 442 kts 315°
2026-05-06 18:30 42.74439 19.35393 38078 ft 441 kts 314°
2026-05-06 18:30 42.79052 19.29868 38079 ft 443 kts 315°
2026-05-06 18:31 42.83693 19.24296 38072 ft 444 kts 315°
2026-05-06 18:31 42.88337 19.18718 38075 ft 444 kts 315°
2026-05-06 18:32 42.92973 19.13131 38067 ft 445 kts 314°
2026-05-06 18:32 42.97577 19.07578 38068 ft 443 kts 314°
2026-05-06 18:33 43.02196 19.01995 38067 ft 444 kts 314°
2026-05-06 18:33 43.06837 18.96370 38061 ft 446 kts 314°
2026-05-06 18:34 43.11482 18.90727 38057 ft 446 kts 314°
2026-05-06 18:34 43.16119 18.85083 38052 ft 445 kts 314°
2026-05-06 18:35 43.20754 18.79430 38046 ft 445 kts 314°
2026-05-06 18:35 43.25384 18.73773 38054 ft 446 kts 313°
2026-05-06 18:36 43.29988 18.68132 38042 ft 446 kts 313°
2026-05-06 18:36 43.34616 18.62451 38038 ft 446 kts 313°
2026-05-06 18:37 43.38456 18.57727 38038 ft 445 kts 313°
2026-05-06 18:37 43.43857 18.51056 38047 ft 446 kts 313°
2026-05-06 18:38 43.48447 18.45395 38064 ft 446 kts 313°
2026-05-06 18:38 43.53074 18.39674 38037 ft 446 kts 313°
2026-05-06 18:39 43.57682 18.33956 38040 ft 447 kts 313°
2026-05-06 18:40 43.64608 18.25346 38020 ft 446 kts 313°
2026-05-06 18:40 43.69213 18.19598 38039 ft 446 kts 313°
2026-05-06 18:41 43.73823 18.13831 38026 ft 446 kts 313°
2026-05-06 18:41 43.78430 18.08063 38018 ft 448 kts 313°
2026-05-06 18:42 43.83030 18.02286 38018 ft 448 kts 313°
2026-05-06 18:42 43.87650 17.96478 38011 ft 448 kts 313°
2026-05-06 18:43 43.92260 17.90672 38015 ft 448 kts 312°
2026-05-06 18:43 43.96879 17.84835 38009 ft 449 kts 312°
2026-05-06 18:44 44.01503 17.78973 37998 ft 451 kts 313°
2026-05-06 18:44 44.06119 17.73111 37996 ft 452 kts 313°
2026-05-06 18:45 44.10733 17.67173 38012 ft 451 kts 309°
2026-05-06 18:45 44.14808 17.60580 37999 ft 449 kts 304°
2026-05-06 18:46 44.18732 17.53794 37994 ft 449 kts 304°
2026-05-06 18:46 44.22608 17.47002 37999 ft 449 kts 304°
2026-05-06 18:47 44.26498 17.40179 37991 ft 450 kts 304°
2026-05-06 18:47 44.30396 17.33347 37982 ft 450 kts 304°
2026-05-06 18:48 44.34291 17.26509 37983 ft 450 kts 304°
2026-05-06 18:48 44.38180 17.19664 37981 ft 450 kts 304°
2026-05-06 18:49 44.42067 17.12805 37972 ft 450 kts 304°
2026-05-06 18:49 44.45954 17.05931 37972 ft 450 kts 304°
2026-05-06 18:50 44.49833 16.99052 37959 ft 450 kts 304°
2026-05-06 18:50 44.53716 16.92151 37966 ft 450 kts 304°
2026-05-06 18:51 44.56861 16.86368 37963 ft 448 kts 301°
2026-05-06 18:51 44.60773 16.77819 37959 ft 447 kts 298°
2026-05-06 18:52 44.64081 16.70402 37938 ft 449 kts 298°
2026-05-06 18:52 44.66883 16.64258 37942 ft 449 kts 299°
2026-05-06 18:53 44.70286 16.56888 37942 ft 450 kts 299°
2026-05-06 18:53 44.73698 16.49508 37986 ft 449 kts 298°
2026-05-06 18:54 44.77104 16.42115 37956 ft 450 kts 298°
2026-05-06 18:54 44.80515 16.34682 37954 ft 452 kts 299°
2026-05-06 18:55 44.83923 16.27236 37958 ft 452 kts 299°
2026-05-06 18:55 44.87329 16.19779 37952 ft 453 kts 299°
2026-05-06 18:56 44.90713 16.12351 37956 ft 452 kts 298°
2026-05-06 18:56 44.94111 16.04870 37959 ft 452 kts 298°
2026-05-06 18:57 44.97499 15.97394 37950 ft 452 kts 298°
2026-05-06 18:57 45.00888 15.89893 37952 ft 452 kts 298°
2026-05-06 18:58 45.04273 15.82384 37950 ft 451 kts 297°
2026-05-06 18:58 45.07615 15.74950 37957 ft 451 kts 297°
2026-05-06 18:59 45.10979 15.67444 37947 ft 452 kts 297°
2026-05-06 18:59 45.14346 15.59912 37947 ft 452 kts 297°
2026-05-06 19:00 45.17703 15.52387 37949 ft 452 kts 296°
2026-05-06 19:00 45.21071 15.44811 37948 ft 454 kts 296°
2026-05-06 19:01 45.24436 15.37224 37942 ft 454 kts 296°
2026-05-06 19:01 45.27780 15.29668 37946 ft 454 kts 296°
2026-05-06 19:02 45.31157 15.22013 37940 ft 455 kts 296°
2026-05-06 19:02 45.34492 15.14438 37946 ft 454 kts 296°
2026-05-06 19:03 45.37835 15.06819 37944 ft 454 kts 297°
2026-05-06 19:03 45.41187 14.99160 37949 ft 455 kts 297°
2026-05-06 19:04 45.44531 14.91502 37944 ft 455 kts 297°
2026-05-06 19:04 45.47897 14.83820 37947 ft 459 kts 297°
2026-05-06 19:05 45.51499 14.76271 37953 ft 461 kts 299°
2026-05-06 19:05 45.55164 14.68761 37946 ft 461 kts 299°
2026-05-06 19:06 45.58774 14.61259 37949 ft 460 kts 298°
2026-05-06 19:06 45.62373 14.53694 37951 ft 463 kts 299°
2026-05-06 19:07 45.66007 14.46011 37951 ft 466 kts 299°
2026-05-06 19:07 45.69636 14.38325 37951 ft 466 kts 299°
2026-05-06 19:08 45.73255 14.30643 37948 ft 465 kts 299°
2026-05-06 19:08 45.76847 14.22997 37943 ft 466 kts 299°
2026-05-06 19:09 45.80467 14.15267 37942 ft 468 kts 299°
2026-05-06 19:09 45.84090 14.07511 37936 ft 468 kts 299°
2026-05-06 19:10 45.87716 13.99729 37932 ft 468 kts 299°
2026-05-06 19:10 45.91327 13.91956 37937 ft 469 kts 299°
2026-05-06 19:11 45.94947 13.84145 37923 ft 469 kts 299°
2026-05-06 19:11 45.98563 13.76321 37921 ft 469 kts 299°
2026-05-06 19:12 46.02147 13.68545 37921 ft 470 kts 299°
2026-05-06 19:12 46.05754 13.60692 37917 ft 469 kts 299°
2026-05-06 19:13 46.09113 13.52666 37916 ft 465 kts 294°
2026-05-06 19:13 46.12139 13.44435 37918 ft 465 kts 293°
2026-05-06 19:14 46.15160 13.36246 37908 ft 465 kts 294°
2026-05-06 19:14 46.18253 13.28035 37911 ft 465 kts 294°
2026-05-06 19:15 46.21378 13.19842 37919 ft 465 kts 294°
2026-05-06 19:15 46.24509 13.11640 37913 ft 466 kts 294°
2026-05-06 19:16 46.27627 13.03434 37927 ft 466 kts 294°
2026-05-06 19:16 46.30744 12.95196 37941 ft 466 kts 294°
2026-05-06 19:17 46.33849 12.86957 37938 ft 466 kts 294°
2026-05-06 19:17 46.36937 12.78730 37951 ft 468 kts 294°
2026-05-06 19:18 46.40045 12.70438 37942 ft 467 kts 294°
2026-05-06 19:18 46.43139 12.62163 37934 ft 467 kts 294°
2026-05-06 19:19 46.46229 12.53864 37952 ft 468 kts 294°
2026-05-06 19:19 46.49326 12.45515 37943 ft 470 kts 294°
2026-05-06 19:20 46.52406 12.37191 37957 ft 471 kts 293°
2026-05-06 19:20 46.55503 12.28790 37974 ft 473 kts 293°
2026-05-06 19:21 46.58598 12.20376 37977 ft 472 kts 293°
2026-05-06 19:21 46.61687 12.11949 37891 ft 473 kts 293°
2026-05-06 19:22 46.64788 12.03465 37900 ft 475 kts 294°
2026-05-06 19:22 46.67877 11.94989 37887 ft 474 kts 293°
2026-05-06 19:23 46.70958 11.86509 37877 ft 474 kts 293°
2026-05-06 19:23 46.74041 11.77997 37880 ft 474 kts 293°
2026-05-06 19:24 46.77114 11.69482 37868 ft 474 kts 293°
2026-05-06 19:24 46.80158 11.61017 37872 ft 474 kts 293°
2026-05-06 19:25 46.83220 11.52479 37856 ft 475 kts 293°
2026-05-06 19:25 46.86285 11.43890 37856 ft 476 kts 293°
2026-05-06 19:26 46.89346 11.35294 37863 ft 478 kts 293°
2026-05-06 19:26 46.92418 11.26646 37858 ft 477 kts 293°
2026-05-06 19:27 46.96091 11.18526 37879 ft 484 kts 307°
2026-05-06 19:27 47.00566 11.11186 37883 ft 487 kts 308°
2026-05-06 19:28 47.05190 11.03888 37852 ft 489 kts 308°
2026-05-06 19:28 47.09822 10.96568 37858 ft 489 kts 308°
2026-05-06 19:29 47.14444 10.89212 37846 ft 489 kts 308°
2026-05-06 19:29 47.19047 10.81850 37845 ft 489 kts 308°
2026-05-06 19:30 47.23624 10.74489 37848 ft 490 kts 308°
2026-05-06 19:30 47.28249 10.67037 37836 ft 489 kts 308°
2026-05-06 19:31 47.32831 10.59648 37875 ft 491 kts 308°
2026-05-06 19:31 47.39820 10.48551 37887 ft 494 kts 314°
2026-05-06 19:32 47.45135 10.42075 37903 ft 498 kts 318°
2026-05-06 19:32 47.50571 10.35803 37908 ft 500 kts 318°
2026-05-06 19:33 47.56046 10.29528 37915 ft 501 kts 318°
2026-05-06 19:33 47.61556 10.23173 37913 ft 502 kts 318°
2026-05-06 19:34 47.67064 10.16786 37913 ft 503 kts 318°
2026-05-06 19:34 47.72570 10.10380 37915 ft 502 kts 318°
2026-05-06 19:35 47.77145 10.05046 37892 ft 502 kts 318°
2026-05-06 19:35 47.82639 9.98623 37918 ft 502 kts 318°
2026-05-06 19:36 47.88132 9.92183 37917 ft 502 kts 318°
2026-05-06 19:36 47.93615 9.85738 37895 ft 502 kts 318°
2026-05-06 19:37 47.99104 9.79268 37908 ft 502 kts 318°
2026-05-06 19:37 48.04500 9.72757 37890 ft 499 kts 313°
2026-05-06 19:38 48.08821 9.64821 37884 ft 488 kts 296°
2026-05-06 19:38 48.11324 9.55514 37891 ft 481 kts 283°
2026-05-06 19:39 48.13149 9.45903 37890 ft 481 kts 281°
2026-05-06 19:39 48.14880 9.36222 37890 ft 481 kts 282°
2026-05-06 19:40 48.16628 9.26532 37903 ft 482 kts 282°
2026-05-06 19:40 48.18394 9.16825 37894 ft 482 kts 282°
2026-05-06 19:41 48.20156 9.07144 37890 ft 482 kts 282°
2026-05-06 19:41 48.21910 8.97442 37895 ft 482 kts 282°
2026-05-06 19:42 48.23660 8.87713 37888 ft 483 kts 282°
2026-05-06 19:42 48.25398 8.77989 37889 ft 483 kts 282°
2026-05-06 19:43 48.27121 8.68307 37890 ft 483 kts 282°
2026-05-06 19:43 48.28845 8.58558 37894 ft 483 kts 282°
2026-05-06 19:44 48.30564 8.48784 37884 ft 484 kts 282°
2026-05-06 19:44 48.32273 8.39015 37885 ft 484 kts 282°
2026-05-06 19:45 48.33978 8.29217 37888 ft 484 kts 282°
2026-05-06 19:45 48.35672 8.19425 37894 ft 484 kts 282°
2026-05-06 19:46 48.37348 8.09684 37899 ft 484 kts 282°
2026-05-06 19:46 48.39030 7.99855 37907 ft 484 kts 281°
2026-05-06 19:47 48.40699 7.90045 37912 ft 484 kts 281°
2026-05-06 19:47 48.42363 7.80211 37911 ft 484 kts 281°
2026-05-06 19:48 48.44027 7.70356 37908 ft 484 kts 282°
2026-05-06 19:48 48.45781 7.60613 37897 ft 485 kts 283°
2026-05-06 19:49 48.47580 7.50814 37885 ft 485 kts 283°
2026-05-06 19:49 48.49357 7.41004 37870 ft 485 kts 283°
2026-05-06 19:50 48.51111 7.31192 37869 ft 484 kts 283°
2026-05-06 19:50 48.52853 7.21376 37873 ft 484 kts 283°
2026-05-06 19:51 48.54581 7.11579 37871 ft 483 kts 283°
2026-05-06 19:51 48.56305 7.01753 37878 ft 483 kts 282°
2026-05-06 19:52 48.58009 6.91991 37890 ft 483 kts 283°
2026-05-06 19:52 48.59716 6.82162 37882 ft 483 kts 283°
2026-05-06 19:53 48.61414 6.72329 37884 ft 483 kts 282°
2026-05-06 19:53 48.63101 6.62498 37884 ft 483 kts 282°
2026-05-06 19:54 48.64779 6.52669 37901 ft 483 kts 282°
2026-05-06 19:54 48.66452 6.42813 37908 ft 483 kts 282°
2026-05-06 19:55 48.68114 6.32963 37911 ft 483 kts 282°
2026-05-06 19:55 48.69761 6.23156 37911 ft 483 kts 282°
2026-05-06 19:56 48.71408 6.13283 37911 ft 483 kts 282°
2026-05-06 19:56 48.73046 6.03405 37913 ft 484 kts 282°
2026-05-06 19:57 48.74683 5.93478 37892 ft 485 kts 282°
2026-05-06 19:57 48.76311 5.83556 37907 ft 485 kts 282°
2026-05-06 19:58 48.77930 5.73621 37909 ft 485 kts 282°
2026-05-06 19:58 48.79539 5.63694 37893 ft 485 kts 282°
2026-05-06 19:59 48.81131 5.53809 37898 ft 485 kts 282°
2026-05-06 19:59 48.82723 5.43869 37904 ft 485 kts 282°
2026-05-06 20:00 48.84308 5.33910 37910 ft 485 kts 282°
2026-05-06 20:00 48.85882 5.23959 37924 ft 485 kts 282°
2026-05-06 20:01 48.87449 5.13990 37922 ft 485 kts 282°
2026-05-06 20:01 48.89581 5.04319 37927 ft 487 kts 295°
2026-05-06 20:02 48.93029 4.95425 37924 ft 489 kts 301°
2026-05-06 20:02 48.96722 4.86720 37927 ft 489 kts 301°
2026-05-06 20:03 49.00441 4.78023 37924 ft 489 kts 301°
2026-05-06 20:03 49.04126 4.69324 37929 ft 488 kts 301°
2026-05-06 20:04 49.07790 4.60603 37932 ft 488 kts 301°
2026-05-06 20:04 49.11450 4.51851 37935 ft 488 kts 301°
2026-05-06 20:05 49.15075 4.43156 37935 ft 488 kts 301°
2026-05-06 20:05 49.18718 4.34392 37939 ft 488 kts 301°
2026-05-06 20:06 49.22348 4.25630 37940 ft 487 kts 301°
2026-05-06 20:06 49.25975 4.16848 37940 ft 487 kts 301°
2026-05-06 20:07 49.29589 4.08067 37942 ft 487 kts 301°
2026-05-06 20:07 49.33195 3.99276 37942 ft 487 kts 301°
2026-05-06 20:08 49.36796 3.90471 37946 ft 487 kts 301°
2026-05-06 20:08 49.40363 3.81717 37942 ft 487 kts 301°
2026-05-06 20:09 49.43948 3.72891 37952 ft 487 kts 301°
2026-05-06 20:09 49.47536 3.64026 37949 ft 487 kts 301°
2026-05-06 20:10 49.51106 3.55178 37949 ft 486 kts 301°
2026-05-06 20:10 49.54668 3.46322 37950 ft 485 kts 301°
2026-05-06 20:11 49.58190 3.37533 37954 ft 485 kts 301°
2026-05-06 20:11 49.61736 3.28655 37952 ft 485 kts 300°
2026-05-06 20:12 49.65277 3.19760 37949 ft 485 kts 300°
2026-05-06 20:12 49.68801 3.10876 37950 ft 485 kts 301°
2026-05-06 20:13 49.72299 3.02030 37955 ft 485 kts 300°
2026-05-06 20:13 49.75809 2.93122 37954 ft 484 kts 300°
2026-05-06 20:14 49.79306 2.84219 37955 ft 484 kts 300°
2026-05-06 20:14 49.82802 2.75288 37955 ft 484 kts 300°
2026-05-06 20:15 49.86261 2.66420 37963 ft 483 kts 300°
2026-05-06 20:15 49.89733 2.57488 37964 ft 483 kts 300°
2026-05-06 20:16 49.93185 2.48577 37966 ft 483 kts 300°
2026-05-06 20:16 49.96638 2.39634 37967 ft 483 kts 300°
2026-05-06 20:17 50.00088 2.30669 37971 ft 483 kts 300°
2026-05-06 20:17 50.03527 2.21701 37973 ft 483 kts 300°
2026-05-06 20:18 50.06963 2.12710 37979 ft 483 kts 300°
2026-05-06 20:18 50.09807 2.05243 37980 ft 482 kts 300°
2026-05-06 20:19 50.13785 1.94764 37980 ft 483 kts 300°
2026-05-06 20:19 50.17434 1.85985 37979 ft 483 kts 308°
2026-05-06 20:20 50.21255 1.79601 37987 ft 483 kts 314°
2026-05-06 20:20 50.26032 1.72246 37987 ft 482 kts 315°
2026-05-06 20:21 50.30860 1.64929 37991 ft 482 kts 315°
2026-05-06 20:21 50.35667 1.57601 37989 ft 482 kts 315°
2026-05-06 20:22 50.40453 1.50253 37746 ft 478 kts 314°
2026-05-06 20:22 50.42829 1.46592 36946 ft 479 kts 314°
2026-05-06 20:22 50.45210 1.42917 36101 ft 481 kts 315°
2026-05-06 20:23 50.47605 1.39213 35312 ft 482 kts 315°
2026-05-06 20:23 50.49970 1.35550 34536 ft 483 kts 315°
2026-05-06 20:23 50.52281 1.31731 33713 ft 483 kts 312°
2026-05-06 20:23 50.54546 1.27818 32768 ft 481 kts 311°
2026-05-06 20:24 50.56795 1.23942 31354 ft 478 kts 311°
2026-05-06 20:24 50.59065 1.20091 29704 ft 480 kts 313°
2026-05-06 20:24 50.61424 1.16364 27990 ft 481 kts 314°
2026-05-06 20:24 50.63824 1.12620 26845 ft 485 kts 314°
2026-05-06 20:25 50.66198 1.08896 26263 ft 479 kts 314°
2026-05-06 20:25 50.68508 1.05254 25688 ft 473 kts 314°
2026-05-06 20:25 50.70821 1.01596 25082 ft 468 kts 314°
2026-05-06 20:25 50.73103 0.97975 24488 ft 464 kts 314°
2026-05-06 20:26 50.75373 0.94367 23889 ft 459 kts 314°
2026-05-06 20:26 50.77607 0.90809 23258 ft 455 kts 314°
2026-05-06 20:26 50.79819 0.87280 22650 ft 449 kts 314°
2026-05-06 20:26 50.81885 0.83979 22094 ft 443 kts 314°
2026-05-06 20:27 50.84044 0.80526 21522 ft 437 kts 314°
2026-05-06 20:27 50.86165 0.77128 20952 ft 431 kts 314°
2026-05-06 20:27 50.88256 0.73785 20399 ft 426 kts 314°
2026-05-06 20:27 50.90320 0.70465 19828 ft 421 kts 314°
2026-05-06 20:28 50.92361 0.67176 19256 ft 416 kts 314°
2026-05-06 20:28 50.94383 0.63916 18694 ft 412 kts 314°
2026-05-06 20:28 50.96382 0.60691 18088 ft 409 kts 314°
2026-05-06 20:28 50.98372 0.57482 17454 ft 405 kts 314°
2026-05-06 20:29 51.00341 0.54299 16833 ft 402 kts 314°
2026-05-06 20:29 51.02294 0.51132 16235 ft 400 kts 314°
2026-05-06 20:29 51.04235 0.47983 15644 ft 397 kts 314°
2026-05-06 20:29 51.06163 0.44852 15047 ft 395 kts 314°
2026-05-06 20:30 51.08094 0.41751 14458 ft 392 kts 315°
2026-05-06 20:30 51.12001 0.35845 13495 ft 379 kts 316°
2026-05-06 20:30 51.13877 0.33004 13201 ft 367 kts 316°
2026-05-06 20:31 51.15674 0.30268 12792 ft 346 kts 316°
2026-05-06 20:31 51.17345 0.27717 12319 ft 328 kts 316°
2026-05-06 20:31 51.18969 0.25233 11869 ft 311 kts 316°
2026-05-06 20:31 51.20490 0.22911 11278 ft 302 kts 316°
2026-05-06 20:32 51.22002 0.20588 10615 ft 296 kts 316°
2026-05-06 20:32 51.23455 0.18351 10047 ft 288 kts 316°
2026-05-06 20:32 51.24874 0.16167 9476 ft 280 kts 316°
2026-05-06 20:32 51.26269 0.14018 9016 ft 280 kts 316°
2026-05-06 20:33 51.27674 0.11852 8579 ft 279 kts 316°
2026-05-06 20:33 51.29062 0.09711 8232 ft 274 kts 316°
2026-05-06 20:33 51.30415 0.07626 8026 ft 265 kts 316°
2026-05-06 20:33 51.31698 0.05642 7976 ft 249 kts 315°
2026-05-06 20:34 51.32913 0.03763 8012 ft 239 kts 315°
2026-05-06 20:34 51.34092 0.01939 8016 ft 240 kts 316°
2026-05-06 20:34 51.35302 0.00036 8018 ft 242 kts 315°
2026-05-06 20:34 51.36495 -0.01876 8007 ft 241 kts 315°
2026-05-06 20:35 51.37635 -0.03772 8008 ft 239 kts 311°
2026-05-06 20:35 51.38388 -0.06100 8024 ft 239 kts 283°
2026-05-06 20:35 51.38544 -0.08740 8010 ft 240 kts 272°
2026-05-06 20:35 51.38545 -0.11422 8012 ft 242 kts 271°
2026-05-06 20:36 51.38530 -0.14228 8024 ft 262 kts 271°
2026-05-06 20:36 51.38512 -0.17157 7643 ft 263 kts 271°
2026-05-06 20:36 51.38496 -0.20115 7194 ft 267 kts 271°
2026-05-06 20:36 51.38482 -0.23110 7029 ft 270 kts 271°
2026-05-06 20:37 51.38471 -0.26131 7014 ft 272 kts 271°
2026-05-06 20:37 51.38452 -0.29151 7012 ft 270 kts 271°
2026-05-06 20:37 51.38436 -0.32143 7018 ft 270 kts 270°
2026-05-06 20:37 51.38416 -0.35166 7022 ft 270 kts 271°
2026-05-06 20:38 51.38391 -0.38168 7024 ft 270 kts 270°
2026-05-06 20:38 51.38370 -0.41176 7016 ft 270 kts 270°
2026-05-06 20:38 51.38354 -0.44175 7017 ft 270 kts 271°
2026-05-06 20:38 51.38334 -0.47191 7023 ft 270 kts 271°
2026-05-06 20:39 51.38322 -0.50206 7021 ft 271 kts 271°
2026-05-06 20:39 51.38306 -0.53206 7015 ft 270 kts 271°
2026-05-06 20:39 51.38287 -0.56221 6902 ft 269 kts 270°
2026-05-06 20:39 51.38268 -0.59214 6487 ft 269 kts 271°
2026-05-06 20:40 51.38325 -0.62209 6095 ft 266 kts 275°
2026-05-06 20:40 51.38447 -0.65112 5872 ft 257 kts 276°
2026-05-06 20:40 51.38568 -0.67911 5692 ft 247 kts 275°
2026-05-06 20:40 51.38695 -0.70621 5448 ft 241 kts 275°
2026-05-06 20:41 51.38822 -0.73268 5149 ft 237 kts 275°
2026-05-06 20:41 51.38941 -0.75882 4846 ft 234 kts 275°
2026-05-06 20:41 51.39061 -0.78457 4616 ft 227 kts 275°
2026-05-06 20:41 51.39182 -0.80927 4451 ft 218 kts 276°
2026-05-06 20:42 51.39298 -0.83273 4293 ft 209 kts 276°
2026-05-06 20:42 51.39407 -0.85556 4161 ft 198 kts 276°
2026-05-06 20:42 51.39498 -0.87688 4001 ft 189 kts 276°
2026-05-06 20:42 51.39581 -0.89776 3986 ft 188 kts 275°
2026-05-06 20:43 51.39713 -0.91859 3968 ft 188 kts 284°
2026-05-06 20:43 51.40331 -0.93627 3988 ft 183 kts 321°
2026-05-06 20:43 51.41485 -0.94337 3976 ft 181 kts
2026-05-06 20:43 51.42653 -0.93677 3989 ft 183 kts 39°
2026-05-06 20:44 51.43438 -0.92076 3993 ft 184 kts 58°
2026-05-06 20:44 51.44051 -0.90284 3974 ft 185 kts 60°
2026-05-06 20:44 51.44650 -0.88453 3975 ft 185 kts 60°
2026-05-06 20:44 51.45249 -0.86613 3995 ft 186 kts 61°
2026-05-06 20:45 51.45846 -0.84770 3975 ft 186 kts 60°
2026-05-06 20:45 51.46429 -0.82957 3995 ft 186 kts 60°
2026-05-06 20:45 51.47030 -0.81107 3813 ft 188 kts 60°
2026-05-06 20:45 51.47471 -0.79159 3652 ft 187 kts 77°
2026-05-06 20:46 51.47599 -0.77091 3524 ft 183 kts 86°
2026-05-06 20:46 51.47625 -0.75114 3392 ft 172 kts 86°
2026-05-06 20:46 51.47663 -0.73233 3199 ft 166 kts 87°
2026-05-06 20:46 51.47667 -0.71393 2976 ft 164 kts 87°
2026-05-06 20:47 51.47670 -0.69569 2747 ft 163 kts 86°
2026-05-06 20:47 51.47679 -0.67750 2517 ft 163 kts 86°
2026-05-06 20:47 51.47685 -0.65943 2299 ft 162 kts 86°
2026-05-06 20:47 51.47692 -0.64154 2067 ft 159 kts 86°
2026-05-06 20:48 51.47698 -0.62374 1849 ft 160 kts 86°
2026-05-06 20:48 51.47705 -0.60592 1627 ft 160 kts 86°
2026-05-06 20:48 51.47711 -0.58833 1403 ft 154 kts 86°
2026-05-06 20:48 51.47716 -0.57181 1191 ft 144 kts 86°
2026-05-06 20:49 51.47722 -0.55587 1008 ft 141 kts 86°
2026-05-06 20:49 51.47728 -0.54020 804 ft 140 kts 86°
2026-05-06 20:49 51.47734 -0.52448 626 ft 140 kts 87°
2026-05-06 20:49 51.47740 -0.50919 429 ft 139 kts 88°
2026-05-06 20:50 51.47747 -0.49347 227 ft 139 kts 87°
2026-05-06 20:50 51.47756 -0.47830 99 ft 133 kts 86°
2026-05-06 20:50 51.47759 -0.46471 99 ft 106 kts 91°
2026-05-06 20:50 51.47759 -0.45686 94 ft 52 kts 90°
2026-05-06 20:51 51.47759 -0.45291 95 ft 20 kts 96°
2026-05-06 20:51 51.47672 -0.45177 97 ft 14 kts 178°
2026-05-06 20:51 51.47637 -0.45175 96 ft 0 kts 178°
2026-05-06 20:52 51.47607 -0.45173 92 ft 10 kts 177°
2026-05-06 20:52 51.47519 -0.45134 97 ft 14 kts 134°
2026-05-06 20:52 51.47510 -0.44985 97 ft 14 kts 88°
2026-05-06 20:52 51.47510 -0.44820 96 ft 16 kts 90°
2026-05-06 20:53 51.47507 -0.44633 95 ft 17 kts 98°
2026-05-06 20:53 51.47504 -0.44437 95 ft 18 kts 89°
2026-05-06 20:53 51.47505 -0.44222 95 ft 20 kts 90°
2026-05-06 20:53 51.47447 -0.44063 96 ft 18 kts 165°
2026-05-06 20:54 51.47319 -0.44059 96 ft 17 kts 180°
2026-05-06 20:54 51.47241 -0.44058 94 ft 11 kts 180°
2026-05-06 20:54 51.47197 -0.44076 94 ft 4 kts 235°
2026-05-06 20:54 51.47189 -0.44127 95 ft 6 kts 262°
2026-05-06 20:55 51.47188 -0.44177 96 ft 4 kts 269°
2026-05-06 20:55 51.47188 -0.44197 92 ft 0 kts 269°
2026-05-06 20:55 51.47188 -0.44199 96 ft 0 kts 269°